[[{"header":{"parameterUnit":"m.s-1","parameterCategory":1,"la1":30.2991,"la2":30.254,"lo1":-89.0895,"lo2":-89.0444,"dy":0.0017,"dx":0.0017,"nx":28,"ny":28,"refTime":"2025-07-13T03:00:00:Z","depth":0,"parameterNumber":2,"parameterNumberName":"U-component_of_WINDS"},"data":[0,0,0,0,0,0,0,0,0,0,0,0,0,0,0,0,0,0,0,0,0,0,0,0,0,0,0,0,0,0,0,0,0,0,0,0,0,0,0,0,0,0,0,0,0,0,0,0,0,0,0,0,0,0,0,0,0,0,4.015,4.0151,0,4.0273,4.0274,4.0276,4.0235,4.0232,4.0229,4.0227,4.0353,4.0358,4.0364,0,0,0,0,0,0,0,0,0,0,0,0,0,3.9878,3.9883,4.015,4.0152,4.0153,4.0273,4.0274,4.0276,4.0235,4.0232,4.0229,4.0226,4.0351,4.0358,4.0365,0,0,0,0,0,0,0,0,0,0,0,0,0,3.9998,3.9885,4.015,4.0147,4.0148,4.0272,4.0274,4.0277,4.0236,4.0232,4.0228,4.0224,4.0349,4.0357,4.0366,4.05,0,0,4.0393,4.0396,0,0,0,0,0,0,0,0,3.9991,4.0008,4.0146,4.0147,4.0149,4.0234,4.0225,4.0352,4.0237,4.0203,4.0227,4.0222,4.0317,4.0328,4.036,4.0506,4.0511,4.0393,4.0399,4.0402,4.0405,0,0,0,0,0,0,0,3.9983,4.0003,4.0199,4.0148,4.015,4.0139,4.0152,4.0248,4.0281,4.0205,4.0202,4.0218,4.0317,4.0351,4.0362,4.0513,4.0393,4.0401,4.0406,4.041,4.0772,4.0776,0,0,0,0,0,0,3.9974,3.9996,4.0195,4.0202,4.0059,4.0147,4.0161,4.0211,4.0279,4.0286,4.0221,4.0215,4.0338,4.0352,4.0367,4.0525,4.0402,4.0411,4.0416,4.0768,4.0773,4.0778,0,0,0,0,0,0,3.9968,3.9992,4.019,4.0098,4.0123,4.0156,4.0212,4.0215,4.025,4.0291,4.0297,4.025,4.0336,4.0354,4.0466,4.0529,4.0415,4.0422,4.0763,4.0769,4.0775,4.0845,0,0,0,0,0,0,3.9961,3.999,4.0042,4.01,4.0128,4.0288,4.0216,4.0221,4.0265,4.0259,4.032,4.0327,4.0334,4.0453,4.0475,4.0539,4.0429,4.0757,4.0766,4.0773,4.0837,4.0853,4.0867,0,0,0,0,0,3.9951,4.0058,4.0045,4.0069,4.0194,4.0292,4.0308,4.0314,4.0271,4.0322,4.0348,4.0325,4.0519,4.0465,4.0489,4.0557,4.0753,4.0763,4.0773,4.0831,4.085,4.0867,0,0,0,0,0,0,4.0008,4.0066,4.0052,4.0181,4.0232,4.0285,4.035,4.0335,4.0399,4.0391,4.0395,4.041,4.0524,4.0552,4.0491,4.0688,4.063,4.0645,4.0665,4.0684,4.0699,4.0688,4.0437,0,0,0,0,0,4.0035,4.0111,4.0157,4.0266,4.0292,4.0317,4.036,4.036,4.0413,4.0435,4.0469,4.0521,4.0593,4.0641,4.071,4.0842,4.0853,4.09,4.0915,4.0927,4.0939,4.1007,4.1027,4.081,4.081,4.081,0,0,4.0093,4.0134,4.0181,4.0279,4.0318,4.0394,4.0336,4.042,4.0476,4.0448,4.0554,4.0581,4.064,4.0761,4.0816,4.0788,4.1002,4.0939,4.0949,4.0954,4.1019,4.104,4.1058,4.0817,4.0815,4.0814,0,0,4.0236,4.0276,4.0369,4.0409,4.0469,4.0485,4.0507,4.0563,4.0579,4.0686,4.0665,4.0732,4.0858,4.0899,4.0936,4.1092,4.1072,4.1115,4.1191,4.1258,4.1275,4.129,4.1342,4.1361,4.1128,4.1128,4.1128,0,4.03,4.0415,4.0419,4.0505,4.0547,4.0524,4.0617,4.0656,4.0736,4.0765,4.0732,4.0887,4.0925,4.1053,4.1091,4.1124,4.1147,4.1107,4.1272,4.1287,4.1301,4.1351,4.1371,4.1132,4.1132,4.1131,4.1131,0,4.0488,4.0568,4.0636,4.0712,4.0762,4.0852,4.0869,4.0919,4.0914,4.0933,4.1041,4.1085,4.1161,4.1192,4.119,4.132,4.13,4.127,4.121,4.1326,4.1373,4.1392,4.1139,4.1137,4.1136,4.1135,0,0,4.067,4.0746,4.077,4.0803,4.0867,4.0928,4.1015,4.1089,4.113,4.1186,4.1257,4.1363,4.1334,4.1377,4.1378,4.1437,4.1553,4.1399,4.14,4.1423,4.1695,4.1715,4.1737,4.1541,4.1545,4.1548,4.1689,0,4.0815,4.0968,4.0974,4.1112,4.1184,4.1162,4.1238,4.1284,4.1304,4.1367,4.1388,4.1461,4.142,4.1445,4.1502,4.1527,4.1607,4.1517,4.1605,4.1608,4.1587,4.1762,4.1784,4.1915,4.1708,4.1711,4.1713,0,4.1005,4.1065,4.121,4.126,4.1291,4.1358,4.1424,4.1486,4.1538,4.1547,4.1594,4.1586,4.1673,4.1612,4.1731,4.167,4.1706,4.1723,4.1728,4.1734,4.1665,4.1769,4.1958,4.1976,4.1743,4.174,4.1738,0,4.1118,4.1236,4.1336,4.1366,4.1428,4.1475,4.1503,4.1551,4.1593,4.1652,4.1679,4.1747,4.1783,4.1836,4.1846,4.1801,4.1963,4.1905,4.1972,4.1971,4.2004,4.2002,4.2198,4.2034,4.2034,4.2033,4.2033,0,4.1278,4.1367,4.1387,4.1449,4.1547,4.1553,4.165,4.1674,4.1716,4.1781,4.1768,4.1829,4.1841,4.1904,4.1913,4.2007,4.2025,4.2034,4.2034,4.2033,4.2031,4.2055,4.2044,4.2039,4.2037,4.2036,4.2036,0,4.142,4.1438,4.1546,4.1595,4.1609,4.1679,4.1721,4.1779,4.1796,4.1879,4.1898,4.1926,4.1999,4.2015,4.2103,4.2109,4.222,4.2214,4.2202,4.22,4.2265,4.2257,4.248,4.2508,4.2329,4.2331,4.2333,0,4.1519,4.1587,4.1643,4.1685,4.1714,4.1783,4.1826,4.1834,4.1879,4.1941,4.1992,4.2064,4.2121,4.2239,4.2266,4.2333,4.2325,4.2399,4.2335,4.233,4.2322,4.2316,4.2321,4.241,4.2412,4.2414,4.2415,0,4.1692,4.1697,4.1759,4.1824,4.1875,4.1927,4.1977,4.2012,4.2026,4.2078,4.2152,4.2196,4.2285,4.2355,4.2421,4.2449,4.2433,4.2435,4.2453,4.2451,4.244,4.2443,4.2231,4.2429,4.2428,4.2427,4.2426,4.2426,4.1813,4.1871,4.1918,4.1987,4.2024,4.207,4.2126,4.215,4.2212,4.2283,4.2285,4.2365,4.2412,4.2499,4.2531,4.2593,4.2569,4.2597,4.2603,4.2609,4.2613,4.2433,4.2605,4.2605,4.2604,4.2604,4.2604,0,4.1982,4.2011,4.2074,4.2142,4.2196,4.2177,4.223,4.2276,4.2347,4.2392,4.2448,4.2532,4.26,4.2632,4.2698,4.2741,4.2735,4.2758,4.2753,4.2759,4.2632,4.2607,4.2761,4.2761,4.2761,4.2761,4.2761,4.2761,4.2076,4.217,4.218,4.2293,4.2321,4.2399,4.243,4.2471,4.2506,4.26,4.2656,4.2676,4.2715,4.2784,4.2845,4.2852,4.2875,4.29,4.2904,4.2784,4.2768,4.2753,4.273,4.2906,4.2907,4.3025,4.3027,4.3027]},{"header":{"parameterUnit":"m.s-1","parameterCategory":1,"la1":30.2991,"la2":30.254,"lo1":-89.0895,"lo2":-89.0444,"dy":0.0017,"dx":0.0017,"nx":28,"ny":28,"refTime":"2025-07-13T03:00:00:Z","depth":0,"parameterNumber":3,"parameterNumberName":"V-component_of_WINDS"},"data":[0,0,0,0,0,0,0,0,0,0,0,0,0,0,0,0,0,0,0,0,0,0,0,0,0,0,0,0,0,0,0,0,0,0,0,0,0,0,0,0,0,0,0,0,0,0,0,0,0,0,0,0,0,0,0,0,0,0,0.8995,0.8996,0,0.9037,0.9037,0.9038,0.9013,0.9012,0.9011,0.901,0.9055,0.9057,0.9059,0,0,0,0,0,0,0,0,0,0,0,0,0,0.8896,0.8898,0.8995,0.8996,0.8996,0.9037,0.9037,0.9038,0.9014,0.9012,0.9011,0.9009,0.9054,0.9057,0.906,0,0,0,0,0,0,0,0,0,0,0,0,0,0.8938,0.8898,0.8995,0.8989,0.8989,0.9036,0.9037,0.9038,0.9014,0.9012,0.901,0.9009,0.9053,0.9056,0.906,0.9116,0,0,0.907,0.9072,0,0,0,0,0,0,0,0,0.8936,0.8942,0.8989,0.8989,0.8989,0.9018,0.9018,0.9064,0.9014,0.9005,0.901,0.9008,0.9044,0.9048,0.906,0.9119,0.912,0.9071,0.9073,0.9074,0.9075,0,0,0,0,0,0,0,0.8933,0.894,0.9012,0.899,0.899,0.8984,0.8989,0.9027,0.9034,0.9005,0.9004,0.9009,0.9044,0.9057,0.9061,0.9121,0.9071,0.9074,0.9076,0.9077,0.9227,0.9229,0,0,0,0,0,0,0.893,0.8938,0.901,0.9013,0.8958,0.8988,0.8992,0.9011,0.9033,0.9035,0.901,0.9007,0.9052,0.9057,0.9062,0.9129,0.9074,0.9077,0.9079,0.9225,0.9227,0.9229,0,0,0,0,0,0,0.8928,0.8937,0.9009,0.8975,0.8983,0.8991,0.9012,0.9012,0.9025,0.9037,0.9038,0.9022,0.9051,0.9057,0.9103,0.9131,0.9079,0.9082,0.9223,0.9226,0.9228,0.9264,0,0,0,0,0,0,0.8926,0.8936,0.8958,0.8975,0.8985,0.9048,0.9014,0.9014,0.9031,0.9028,0.9048,0.905,0.905,0.9098,0.9106,0.9134,0.9085,0.922,0.9224,0.9227,0.9261,0.9268,0.9275,0,0,0,0,0,0.8922,0.8967,0.8959,0.8968,0.9012,0.905,0.9056,0.9053,0.9033,0.9055,0.9062,0.905,0.9126,0.9103,0.9112,0.9142,0.9219,0.9223,0.9227,0.9258,0.9267,0.9274,0,0,0,0,0,0,0.8954,0.897,0.8961,0.9013,0.903,0.9046,0.9073,0.9063,0.9087,0.9083,0.908,0.9085,0.9132,0.9141,0.9115,0.9197,0.9169,0.9176,0.9189,0.9198,0.9205,0.9202,0.9088,0,0,0,0,0,0.8967,0.8996,0.9008,0.9053,0.9061,0.9066,0.9082,0.9079,0.9097,0.9104,0.9115,0.9133,0.9161,0.918,0.9207,0.9262,0.9266,0.9286,0.9293,0.9299,0.9305,0.9334,0.9343,0.9244,0.9243,0.9243,0,0,0.8995,0.9006,0.9025,0.9059,0.9072,0.9102,0.9072,0.9106,0.9128,0.9109,0.9153,0.9161,0.9181,0.9231,0.9254,0.924,0.9333,0.9304,0.9309,0.9312,0.9339,0.9348,0.9357,0.9246,0.9246,0.9245,0,0,0.906,0.9072,0.911,0.9123,0.9142,0.9145,0.9154,0.917,0.9175,0.9218,0.9204,0.9231,0.9279,0.9294,0.9308,0.9376,0.9365,0.9385,0.9421,0.945,0.9457,0.9464,0.9489,0.9497,0.9391,0.9391,0.9391,0,0.9092,0.9136,0.9131,0.9165,0.918,0.9163,0.9202,0.9215,0.9243,0.9254,0.9238,0.9297,0.931,0.9363,0.9379,0.9391,0.9401,0.9383,0.9456,0.9463,0.947,0.9493,0.9502,0.9393,0.9393,0.9393,0.9392,0,0.9174,0.9205,0.9233,0.9259,0.9277,0.9313,0.9314,0.9333,0.9327,0.9331,0.9375,0.9389,0.9417,0.9429,0.9425,0.9481,0.9472,0.9457,0.9429,0.9482,0.9503,0.9512,0.9396,0.9395,0.9395,0.9394,0,0,0.9262,0.9283,0.9294,0.9305,0.9324,0.9348,0.9383,0.9409,0.9426,0.9445,0.9474,0.9514,0.9499,0.9515,0.9512,0.9536,0.9589,0.9518,0.9518,0.953,0.9652,0.9664,0.9674,0.9582,0.9583,0.9585,0.965,0,0.9329,0.9389,0.9385,0.9442,0.947,0.9453,0.9483,0.9499,0.9503,0.9527,0.9532,0.956,0.9539,0.9548,0.9571,0.9578,0.9614,0.9573,0.9609,0.961,0.9605,0.9685,0.9699,0.976,0.9658,0.966,0.9661,0,0.9415,0.9435,0.9495,0.9508,0.952,0.9547,0.9571,0.9594,0.9611,0.9612,0.9628,0.962,0.9656,0.9626,0.9674,0.9647,0.9661,0.9666,0.9668,0.9672,0.9639,0.9692,0.9779,0.9789,0.9674,0.9673,0.9672,0,0.9473,0.9515,0.9556,0.9566,0.9583,0.9603,0.9611,0.9625,0.9641,0.9662,0.9672,0.9697,0.9711,0.973,0.9729,0.9707,0.9777,0.9748,0.978,0.978,0.9796,0.9795,0.9887,0.9804,0.9804,0.9804,0.9804,0,0.9548,0.9585,0.9582,0.9608,0.9648,0.9643,0.9683,0.9689,0.9702,0.9728,0.9715,0.974,0.9737,0.9762,0.9761,0.9801,0.9807,0.9809,0.9809,0.9811,0.981,0.9821,0.9816,0.9807,0.9806,0.9806,0.9805,0,0.962,0.962,0.9663,0.9675,0.9679,0.9708,0.9719,0.9743,0.9745,0.9778,0.9785,0.9789,0.9817,0.9818,0.9851,0.985,0.9899,0.9893,0.9893,0.9892,0.9923,0.9921,1.0026,1.0039,0.9948,0.9948,0.9949,0,0.9668,0.9696,0.971,0.9726,0.9735,0.9762,0.9777,0.9772,0.9789,0.9809,0.983,0.9857,0.9879,0.9925,0.9931,0.9956,0.9951,0.9986,0.9955,0.9955,0.9951,0.995,0.9953,0.9992,0.9994,0.9994,0.9995,0,0.9754,0.9752,0.9774,0.9797,0.9815,0.9833,0.985,0.9863,0.986,0.988,0.9908,0.9925,0.9957,0.9984,1.0008,1.0016,1.0005,1.0004,1.0013,1.0016,1.0014,1.0015,0.991,1.0002,1.0002,1.0001,1.0001,1.0,0.9815,0.9839,0.9852,0.9878,0.9889,0.9904,0.9926,0.9931,0.9954,0.998,0.9975,1.0007,1.0021,1.0052,1.0062,1.0087,1.0074,1.0087,1.009,1.0094,1.0097,1.001,1.0091,1.0091,1.009,1.009,1.009,0,0.99,0.9907,0.993,0.9953,0.9973,0.9959,0.9976,0.9994,1.0021,1.0035,1.0056,1.0088,1.0113,1.0121,1.0145,1.0163,1.0159,1.017,1.0169,1.0171,1.0106,1.0097,1.0173,1.0173,1.0173,1.0173,1.0173,1.0173,0.9946,0.9985,0.9984,1.0028,1.0035,1.0065,1.0076,1.009,1.0101,1.0137,1.0158,1.0162,1.0173,1.0198,1.022,1.0222,1.0232,1.0245,1.0244,1.0184,1.0176,1.0168,1.0158,1.0247,1.0247,1.0307,1.0307,1.0308]}]]